This is the latest recevied weather packets stored in our database for station/object SR6WXJG. If no packets are shown the sender has not sent any weather packets the latest 10 day(s).
| Time | Temp. | Humidity | Pressure | Rain* | Wind** | Luminosity | Snow |
|---|---|---|---|---|---|---|---|
| 1777695529 | 6.11° C | 79% | 1025 hPa | 0 mm | - | - | - |
| 1777694629 | 5.56° C | 78% | 1025 hPa | 0 mm | - | - | - |
| 1777693729 | 6.11° C | 80% | 1026 hPa | 0 mm | - | - | - |
| 1777692829 | 6.11° C | 80% | 1026 hPa | 0 mm | - | - | - |
| 1777691928 | 5.56° C | 78% | 1025 hPa | 0 mm | - | - | - |
| 1777691028 | 6.11° C | 78% | 1025 hPa | 0 mm | - | - | - |
| 1777690128 | 6.11° C | 79% | 1026 hPa | 0 mm | - | - | - |
| 1777689227 | 6.11° C | 78% | 1026 hPa | 0 mm | - | - | - |
| 1777688327 | 6.11° C | 77% | 1026 hPa | 0 mm | - | - | - |
| 1777687427 | 6.67° C | 76% | 1026 hPa | 0 mm | - | - | - |
| 1777686526 | 6.67° C | 77% | 1026 hPa | 0 mm | - | - | - |
| 1777685626 | 6.67° C | 77% | 1026 hPa | 0 mm | - | - | - |
| 1777684725 | 7.22° C | 76% | 1026 hPa | 0 mm | - | - | - |
| 1777683825 | 7.22° C | 76% | 1026 hPa | 0 mm | - | - | - |
| 1777682925 | 7.22° C | 76% | 1026 hPa | 0 mm | - | - | - |
| 1777682024 | 7.22° C | 76% | 1026 hPa | 0 mm | - | - | - |
| 1777681124 | 7.78° C | 72% | 1026 hPa | 0 mm | - | - | - |
| 1777680223 | 7.78° C | 74% | 1027 hPa | 0 mm | - | - | - |
| 1777679323 | 7.78° C | 74% | 1027 hPa | 0 mm | - | - | - |
| 1777678423 | 8.33° C | 74% | 1027 hPa | 0 mm | - | - | - |
| 1777677522 | 8.33° C | 70% | 1027 hPa | 0 mm | - | - | - |
| 1777676622 | 8.89° C | 70% | 1027 hPa | 0 mm | - | - | - |
| 1777675722 | 8.89° C | 70% | 1027 hPa | 0 mm | - | - | - |
| 1777674821 | 8.89° C | 70% | 1027 hPa | 0 mm | - | - | - |
| 1777673922 | 10° C | 63% | 1027 hPa | 0 mm | - | - | - |
* Rain latest hour (hover to see other rain measurements)
** Current wind speed in m/s (hover to see current wind gust speed)